[[{"header":{"parameterUnit":"m.s-1","parameterCategory":1,"la1":30.2991,"la2":30.254,"lo1":-89.0895,"lo2":-89.0444,"dy":0.0017,"dx":0.0017,"nx":28,"ny":28,"refTime":"2025-05-22T21:00:00:Z","depth":0,"parameterNumber":2,"parameterNumberName":"U-component_of_WINDS"},"data":[0,0,0,0,0,0,0,0,0,0,0,0,0,0,0,0,0,0,0,0,0,0,0,0,0,0,0,0,0,0,0,0,0,0,0,0,0,0,0,0,0,0,0,0,0,0,0,0,0,0,0,0,0,0,0,0,0,0,1.0347,1.0347,0,1.0388,1.0389,1.0389,1.0381,1.038,1.038,1.0379,1.0422,1.0423,1.0425,0,0,0,0,0,0,0,0,0,0,0,0,0,1.0258,1.026,1.0346,1.0347,1.0348,1.0388,1.0389,1.0389,1.0381,1.038,1.0379,1.0379,1.0421,1.0423,1.0425,0,0,0,0,0,0,0,0,0,0,0,0,0,1.0298,1.0261,1.0346,1.0348,1.0349,1.0388,1.0389,1.0389,1.0381,1.038,1.0379,1.0378,1.042,1.0423,1.0426,1.0465,0,0,1.0434,1.0435,0,0,0,0,0,0,0,0,1.0296,1.0301,1.0348,1.0348,1.0349,1.0378,1.0373,1.0415,1.0382,1.0369,1.0379,1.0378,1.0408,1.0412,1.0422,1.0467,1.0469,1.0434,1.0436,1.0437,1.0438,0,0,0,0,0,0,0,1.0293,1.0299,1.0363,1.0348,1.0349,1.0347,1.0351,1.0381,1.0394,1.037,1.037,1.0375,1.0408,1.0419,1.0423,1.047,1.0434,1.0437,1.0438,1.0439,1.0547,1.0549,0,0,0,0,0,0,1.029,1.0297,1.0362,1.0364,1.0319,1.0349,1.0354,1.037,1.0394,1.0397,1.0376,1.0374,1.0415,1.042,1.0424,1.0471,1.0437,1.044,1.0441,1.0546,1.0548,1.0549,0,0,0,0,0,0,1.0288,1.0296,1.036,1.0331,1.0339,1.0352,1.037,1.0372,1.0383,1.0398,1.04,1.0385,1.0415,1.0421,1.0455,1.0472,1.0441,1.0443,1.0545,1.0547,1.0548,1.0565,0,0,0,0,0,0,1.0285,1.0295,1.0311,1.0331,1.034,1.039,1.0371,1.0373,1.0387,1.0386,1.0407,1.041,1.0414,1.0451,1.0457,1.0476,1.0446,1.0543,1.0546,1.0548,1.0563,1.0567,1.0571,0,0,0,0,0,1.0282,1.0314,1.0311,1.0319,1.036,1.0391,1.0396,1.0401,1.0389,1.0404,1.0414,1.0409,1.047,1.0454,1.0462,1.0481,1.0542,1.0545,1.0548,1.0561,1.0567,1.0571,0,0,0,0,0,0,1.0295,1.0317,1.0314,1.0353,1.037,1.039,1.0409,1.0406,1.0427,1.0425,1.0429,1.0434,1.0468,1.0478,1.0461,1.052,1.0504,1.0509,1.0512,1.0517,1.0521,1.0517,1.0448,0,0,0,0,0,1.0303,1.0327,1.0344,1.0377,1.0385,1.0396,1.041,1.0411,1.0429,1.0436,1.0449,1.0466,1.0489,1.0504,1.0525,1.0565,1.0569,1.0582,1.0586,1.0589,1.0592,1.0612,1.0618,1.0558,1.0558,1.0558,0,0,1.0318,1.0333,1.0348,1.038,1.0393,1.0417,1.0402,1.0428,1.0446,1.044,1.0473,1.0483,1.0502,1.0538,1.0555,1.0548,1.061,1.0592,1.0595,1.0596,1.0616,1.0621,1.0626,1.056,1.056,1.0559,0,0,1.0359,1.0373,1.0401,1.0415,1.0435,1.0441,1.0448,1.0468,1.0474,1.0506,1.0503,1.0523,1.0563,1.0576,1.0588,1.0633,1.0628,1.064,1.066,1.0679,1.0684,1.0688,1.0703,1.0708,1.0643,1.0643,1.0643,0,1.0375,1.0412,1.0416,1.0442,1.0456,1.0452,1.048,1.0493,1.0519,1.0528,1.052,1.0568,1.0581,1.062,1.063,1.0641,1.0648,1.0637,1.0683,1.0687,1.0691,1.0705,1.0711,1.0644,1.0644,1.0644,1.0644,0,1.043,1.0455,1.0476,1.0501,1.0517,1.0544,1.0552,1.0567,1.0567,1.0575,1.0607,1.0623,1.0647,1.0656,1.0657,1.0695,1.0689,1.0682,1.0666,1.0698,1.0711,1.0716,1.0646,1.0646,1.0645,1.0645,0,0,1.048,1.0507,1.0514,1.0525,1.0546,1.0565,1.0592,1.0615,1.0628,1.0646,1.0668,1.0701,1.0693,1.0707,1.0709,1.0727,1.0759,1.0717,1.0717,1.0723,1.08,1.0804,1.081,1.0756,1.0757,1.0758,1.0797,0,1.0521,1.0568,1.0572,1.0614,1.0636,1.0632,1.0655,1.067,1.0678,1.0697,1.0705,1.0728,1.0717,1.0725,1.0742,1.0751,1.0774,1.0749,1.0775,1.0776,1.077,1.0817,1.0823,1.0859,1.0803,1.0804,1.0804,0,1.0576,1.0595,1.0639,1.0656,1.0666,1.0686,1.0707,1.0726,1.0743,1.0747,1.0762,1.0761,1.0788,1.0771,1.0807,1.079,1.0801,1.0807,1.0808,1.081,1.0792,1.0819,1.0871,1.0876,1.0813,1.0812,1.0811,0,1.0606,1.0643,1.0673,1.0683,1.0704,1.0718,1.0728,1.0744,1.0757,1.0776,1.0784,1.0806,1.0817,1.0833,1.0838,1.0826,1.0873,1.0858,1.0877,1.0876,1.0886,1.0885,1.0939,1.0895,1.0895,1.0895,1.0895,0,1.0651,1.0677,1.0687,1.0706,1.0735,1.0739,1.0768,1.0776,1.079,1.081,1.0809,1.0827,1.0833,1.0852,1.0857,1.0885,1.089,1.0893,1.0894,1.0893,1.0892,1.09,1.0897,1.0896,1.0896,1.0896,1.0896,0,1.0689,1.0697,1.0729,1.0747,1.0752,1.0772,1.0787,1.0804,1.0811,1.0836,1.0842,1.0853,1.0875,1.0882,1.0909,1.0912,1.0944,1.0943,1.0939,1.0938,1.0956,1.0954,1.1016,1.1023,1.0976,1.0976,1.0976,0,1.0717,1.0737,1.0756,1.0769,1.0779,1.08,1.0814,1.0819,1.0833,1.0853,1.0868,1.089,1.0908,1.0944,1.0954,1.0974,1.0973,1.0993,1.0976,1.0974,1.0972,1.097,1.0971,1.0996,1.0997,1.0997,1.0997,0,1.0764,1.0767,1.0786,1.0807,1.0823,1.084,1.0856,1.0866,1.0873,1.0889,1.0912,1.0926,1.0953,1.0975,1.0995,1.1005,1.1002,1.1003,1.1008,1.1006,1.1002,1.1003,1.0946,1.1001,1.1001,1.1,1.1,1.1,1.0797,1.0814,1.083,1.0852,1.0864,1.0879,1.0896,1.0904,1.0924,1.0946,1.0948,1.0972,1.0988,1.1015,1.1025,1.1044,1.1038,1.1046,1.1048,1.1049,1.105,1.1,1.1048,1.1048,1.1048,1.1048,1.1048,0,1.0843,1.0853,1.0873,1.0895,1.0912,1.0908,1.0925,1.0939,1.0961,1.0975,1.0993,1.1018,1.1039,1.105,1.1071,1.1084,1.1083,1.1089,1.1087,1.1089,1.1055,1.1048,1.1089,1.1089,1.1089,1.1089,1.1089,1.1089,1.0869,1.0898,1.0902,1.0936,1.0946,1.097,1.098,1.0993,1.1004,1.1033,1.105,1.1057,1.107,1.1092,1.111,1.1113,1.112,1.1127,1.1128,1.1096,1.1092,1.1088,1.1081,1.1128,1.1129,1.1161,1.1161,1.1162]},{"header":{"parameterUnit":"m.s-1","parameterCategory":1,"la1":30.2991,"la2":30.254,"lo1":-89.0895,"lo2":-89.0444,"dy":0.0017,"dx":0.0017,"nx":28,"ny":28,"refTime":"2025-05-22T21:00:00:Z","depth":0,"parameterNumber":3,"parameterNumberName":"V-component_of_WINDS"},"data":[0,0,0,0,0,0,0,0,0,0,0,0,0,0,0,0,0,0,0,0,0,0,0,0,0,0,0,0,0,0,0,0,0,0,0,0,0,0,0,0,0,0,0,0,0,0,0,0,0,0,0,0,0,0,0,0,0,0,4.2241,4.2242,0,4.2277,4.2278,4.2278,4.223,4.2228,4.2227,4.2225,4.2256,4.2258,4.2261,0,0,0,0,0,0,0,0,0,0,0,0,0,4.2126,4.2129,4.2241,4.2242,4.2242,4.2277,4.2278,4.2278,4.223,4.2228,4.2226,4.2224,4.2255,4.2258,4.2261,0,0,0,0,0,0,0,0,0,0,0,0,0,4.217,4.2129,4.2241,4.2223,4.2222,4.2277,4.2278,4.2278,4.2231,4.2228,4.2226,4.2223,4.2254,4.2258,4.2261,4.2335,0,0,4.2272,4.2274,0,0,0,0,0,0,0,0,4.2168,4.2175,4.2225,4.2224,4.2223,4.2247,4.2248,4.2297,4.2232,4.2227,4.2225,4.2222,4.2255,4.2258,4.227,4.2336,4.2338,4.2273,4.2275,4.2277,4.2278,0,0,0,0,0,0,0,4.2165,4.2173,4.2255,4.2226,4.2225,4.2211,4.2214,4.2257,4.2255,4.2227,4.2224,4.2229,4.2253,4.2267,4.2271,4.2338,4.2273,4.2276,4.2278,4.228,4.2465,4.2468,0,0,0,0,0,0,4.2165,4.2171,4.2254,4.2256,4.2189,4.2215,4.2219,4.2242,4.2254,4.2254,4.2231,4.2227,4.2262,4.2266,4.2271,4.2358,4.2277,4.228,4.2282,4.2462,4.2466,4.2469,0,0,0,0,0,0,4.2163,4.2173,4.2253,4.2213,4.2222,4.222,4.2246,4.2244,4.2257,4.2257,4.2256,4.2246,4.226,4.2266,4.232,4.2358,4.2282,4.2285,4.2459,4.2463,4.2467,4.2531,0,0,0,0,0,0,4.216,4.2172,4.2202,4.2214,4.2224,4.2302,4.2248,4.2246,4.2264,4.2258,4.227,4.227,4.2259,4.2315,4.2323,4.2362,4.2288,4.2456,4.2461,4.2466,4.2525,4.2537,4.2547,0,0,0,0,0,4.2156,4.2217,4.2203,4.2214,4.2261,4.2305,4.231,4.2298,4.2267,4.2296,4.2296,4.2269,4.2353,4.232,4.233,4.237,4.2453,4.2459,4.2466,4.2521,4.2535,4.2546,0,0,0,0,0,0,4.2207,4.2218,4.2203,4.2271,4.2287,4.2296,4.2332,4.2313,4.2337,4.233,4.2312,4.2315,4.2372,4.2376,4.234,4.2441,4.2398,4.2406,4.2436,4.2449,4.246,4.2457,4.2291,0,0,0,0,0,4.2227,4.2263,4.227,4.2329,4.2338,4.2334,4.2352,4.2341,4.2357,4.2363,4.2367,4.2382,4.2411,4.243,4.2457,4.2526,4.2527,4.2558,4.2569,4.2577,4.2584,4.262,4.2634,4.2489,4.2489,4.2489,0,0,4.2266,4.2277,4.2301,4.2339,4.2351,4.2387,4.234,4.238,4.2406,4.2368,4.2419,4.2423,4.2438,4.2499,4.2526,4.2504,4.2625,4.2585,4.2592,4.2595,4.2628,4.2642,4.2654,4.2493,4.2493,4.2492,0,0,4.2358,4.237,4.242,4.2434,4.2452,4.2449,4.2461,4.2474,4.2475,4.2527,4.2499,4.2529,4.258,4.2592,4.2604,4.2701,4.2677,4.271,4.2765,4.28,4.2811,4.2821,4.2855,4.2867,4.2717,4.2717,4.2718,0,4.2404,4.246,4.2448,4.2491,4.2508,4.2478,4.2527,4.254,4.2566,4.2577,4.2553,4.2617,4.2625,4.2688,4.2712,4.2723,4.2735,4.2708,4.2811,4.2821,4.283,4.2861,4.2874,4.2721,4.2721,4.272,4.272,0,4.2516,4.2555,4.2593,4.2621,4.2642,4.2688,4.2681,4.2704,4.2692,4.269,4.2742,4.2751,4.2779,4.2793,4.2781,4.2855,4.2841,4.2814,4.277,4.2848,4.2877,4.2889,4.2727,4.2725,4.2724,4.2723,0,0,4.2639,4.2662,4.2675,4.2688,4.2707,4.2735,4.2779,4.2809,4.2828,4.2847,4.2882,4.2927,4.2903,4.2917,4.2905,4.2936,4.3011,4.2906,4.2906,4.2924,4.3092,4.3112,4.3126,4.2996,4.2999,4.3,4.3091,0,4.273,4.2808,4.2799,4.2873,4.2908,4.288,4.2918,4.2933,4.2933,4.2961,4.2961,4.2992,4.2958,4.2967,4.2996,4.2996,4.3045,4.2989,4.3027,4.3029,4.3024,4.3142,4.3162,4.3247,4.3102,4.3104,4.3106,0,4.2846,4.2872,4.295,4.2964,4.2978,4.3013,4.3039,4.3067,4.3082,4.308,4.3097,4.308,4.3122,4.3078,4.3135,4.3098,4.3113,4.3115,4.3118,4.312,4.3071,4.3146,4.3274,4.3286,4.3124,4.3122,4.3121,0,4.2927,4.2981,4.3035,4.3046,4.3064,4.3089,4.3097,4.311,4.3128,4.3151,4.3162,4.3188,4.3202,4.3223,4.3212,4.3182,4.3271,4.3226,4.3269,4.3269,4.3288,4.3287,4.3419,4.33,4.3299,4.3299,4.3299,0,4.3029,4.3077,4.3071,4.3104,4.3157,4.3146,4.3198,4.3202,4.3215,4.3246,4.3223,4.3253,4.3239,4.3267,4.3259,4.3307,4.3314,4.3312,4.3309,4.3314,4.3314,4.3322,4.3316,4.3303,4.3302,4.3301,4.3301,0,4.3128,4.3126,4.3182,4.3195,4.32,4.3238,4.3248,4.3278,4.3277,4.3318,4.3326,4.3324,4.3356,4.3349,4.3384,4.3378,4.3439,4.3429,4.3434,4.3431,4.3474,4.347,4.3616,4.3634,4.3503,4.3505,4.3506,0,4.3192,4.3229,4.3247,4.3268,4.3278,4.3312,4.3331,4.3321,4.3341,4.3362,4.3389,4.342,4.3444,4.3497,4.3497,4.3523,4.3513,4.3563,4.3517,4.352,4.3513,4.3511,4.3514,4.3571,4.3573,4.3574,4.3575,0,4.3306,4.3304,4.3334,4.3363,4.3387,4.341,4.3429,4.3447,4.3438,4.3462,4.3496,4.3515,4.3552,4.3582,4.3607,4.3612,4.3592,4.359,4.3601,4.3605,4.3607,4.3606,4.3458,4.3586,4.3585,4.3584,4.3584,4.3583,4.3389,4.3421,4.3438,4.3472,4.3486,4.3506,4.3535,4.3538,4.3567,4.3597,4.3589,4.3627,4.3641,4.3673,4.3682,4.3711,4.3692,4.3708,4.3712,4.3716,4.3721,4.3603,4.3715,4.3715,4.3715,4.3714,4.3714,0,4.3501,4.3512,4.3543,4.3573,4.3599,4.358,4.3601,4.3623,4.3658,4.3674,4.3699,4.3738,4.3767,4.3771,4.3798,4.382,4.3812,4.3828,4.3825,4.3827,4.3737,4.3724,4.3834,4.3834,4.3834,4.3834,4.3834,4.3834,4.3563,4.3615,4.3615,4.3674,4.3683,4.3722,4.3736,4.3753,4.3766,4.3811,4.3836,4.3839,4.3849,4.3878,4.3903,4.3903,4.3914,4.3934,4.393,4.3845,4.3833,4.3822,4.381,4.3937,4.3937,4.4018,4.4019,4.4019]}]]